Theta_e
331 328 327 328 326 324 321 319 319 318 317 317 317 317 315 314 314 315 314 312 312 313
326 324 322 320 319 319 318 318 316 316 315 315 315 316 313 313 312 312 312 313 311 310
321 320 319 318 316 315 315 315 314 313 313 313 314 314 313 311 312 312 310 313 312 311
318 317 317 316 315 314 312 312 312 313 312 312 313 312 311 310 311 311 310 311 310 310
316 314 312 312 312 311 311 312 312 313 313 312 310 309 308 308 309 308 309 310 309 310
312 311 310 310 310 311 311 311 312 313 310 307 305 304 305 306 306 307 308 309 308 309
309 309 309 310 310 311 312 312 311 312 307 305 301 301 301 302 302 304 309 313 313 313
309 309 309 309 311 311 311 311 312 311 308 302 300 300 298 298 299 302 309 313 314 315
308 308 308 309 309 308 309 309 309 308 306 300 300 298 299 299 297 304 308 311 313 315
307 308 308 308 308 309 308 307 307 306 303 297 296 297 297 300 300 306 309 310 312 313
306 306 306 306 306 309 309 308 305 304 302 298 297 297 296 298 302 302 307 308 308 306
304 303 305 306 306 306 308 307 304 302 301 298 294 295 295 296 300 300 302 307 306 303
304 305 305 306 306 307 305 307 305 303 300 301 296 295 294 293 297 298 300 305 305 304
302 305 305 306 306 305 305 302 299 300 298 294 293 292 293 293 295 297 299 300 302 303
Wind_Speed
12 8 7 9 9 8 6 5 6 6 5 6 5 5 5 4 4 3 3 5 4 2
10 12 10 12 10 6 6 5 6 5 4 4 3 5 5 3 4 4 3 3 4 3
12 11 11 11 10 8 7 6 6 5 4 3 4 3 2 3 5 5 4 4 6 4
11 11 10 9 7 7 6 6 5 5 4 4 6 8 8 6 7 7 6 5 5 5
10 9 9 8 7 6 6 6 6 5 9 10 9 8 8 7 7 6 6 5 6 6
8 8 8 7 7 7 6 6 8 9 9 9 9 8 7 6 7 6 6 5 5 6
8 7 7 7 7 7 7 8 7 7 9 9 8 8 7 7 6 6 6 6 6 5
7 7 7 6 7 7 8 7 7 7 8 7 9 8 7 6 5 5 7 6 5 5
7 6 7 7 7 7 7 7 6 6 8 7 6 10 13 9 5 5 5 5 5 4
7 9 8 7 7 6 5 5 6 6 8 6 6 12 16 16 4 5 4 5 5 5
9 9 7 7 6 6 5 6 5 6 6 5 6 11 17 16 6 6 6 6 5 5
7 6 6 5 5 4 4 5 4 5 5 6 5 13 15 13 7 7 7 5 4 5
5 5 5 5 4 3 3 5 4 6 6 9 6 12 15 14 5 7 7 8 7 9
7 6 5 4 3 4 3 4 6 6 5 6 7 8 16 15 7 6 7 6 7 8
Wind_Direction
82 84 66 93 101 100 99 94 81 73 66 64 64 60 31 13 353 34 6 353 329 313
79 84 80 81 87 92 99 95 86 85 70 64 58 78 40 11 336 351 329 294 305 302
83 78 78 80 78 75 70 73 71 61 52 53 68 88 58 332 336 344 332 339 354 349
79 77 75 76 72 73 73 76 72 57 39 41 46 28 37 25 20 17 4 3 4 343
76 73 68 67 77 74 75 64 67 41 50 68 47 37 31 15 3 358 351 344 359 335
69 73 77 72 68 61 68 61 48 73 74 65 49 33 19 7 348 333 324 341 353 344
80 78 80 74 69 60 58 79 68 70 84 70 52 31 5 350 331 323 340 346 337 331
90 84 85 86 67 72 62 59 74 81 78 69 47 14 355 327 320 329 335 320 323 338
87 80 67 76 69 70 73 57 67 77 86 66 36 351 348 357 329 324 318 329 333 346
76 68 65 63 60 53 72 85 81 66 83 67 22 1 355 354 339 339 330 338 340 4
65 71 61 59 52 40 45 85 84 71 96 83 28 11 7 352 3 349 351 344 25 22
68 68 67 54 53 33 57 94 93 88 74 77 29 19 9 4 353 1 354 339 26 2
76 85 72 64 35 35 35 97 96 96 65 55 27 15 12 9 344 8 4 354 347 342
8 87 72 68 45 17 49 104 79 84 94 79 42 8 11 7 9 353 352 346 345 336